Location: Gwatt
(46.7204°N, 7.6223°E)
Time: 10:50:10
(UTC+00:00)

NOSS 3-2 (A) - Pass Details

Date: 18 September 2020
Orbit: 795 x 1413 km, 63.4° (Epoch: 02 October)

Event Time Altitude Azimuth Distance (km) Brightness Sun altitude
Rises 20:00:26 0° 319° (NW) 3,979 7.9 -24.5°
Reaches altitude 10° 20:03:01 10° 316° (NW) 3,099 7.1 -24.9°
Maximum altitude 20:10:29 65° 237° (WSW) 1,410 4.3 -26.0°
Enters shadow 20:13:56 37° 171° (S) 1,950 4.7 -26.5°
